Regional Weather Roundup
Issued by NWS Charleston, SC

Current Version | Previous Version | Graphics & Text | Print | Product List | Glossary On
Versions: 1 2 3 4 5 6 7 8 9 10 11 12 13 14 15 16 17 18 19 20 21 22 23 24 25 26 27 28 29 30 31 32 33 34 35 36 37 38 39 40 41 42 43 44 45 46 47 48 49 50
270 ASUS42 KCHS 282227 RWRCHS REGIONAL WEATHER ROUNDUP NATIONAL WEATHER SERVICE CHARLESTON SC 600 PM EDT SUN MAY 28 2017 NOTE: "FAIR" INDICATES FEW OR NO CLOUDS BELOW 12,000 FEET WITH NO SIGNIFICANT WEATHER AND/OR OBSTRUCTIONS TO VISIBILITY. NOT ALL STATIONS ARE QUALITY CONTROLLED. USE DATA WITH CAUTION... ESPECIALLY DEWPOINT OBSERVATIONS. SCZ027-030-031-034>040-042>050-282300- ...SOUTHEAST SOUTH CAROLINA... CITY SKY/WX TMP DP RH WIND PRES REMARKS N CHARLESTON PTSUNNY 86 72 62 SW9 29.86F HX 92 WATERFRONT PRK N/A 83 76 79 S10 29.86S HX 91 JOHNS ISLAND FAIR 82 75 78 S12 29.87S PINOPOLIS N/A 86 73 66 SW13G20 29.78S HX 93 MONCKS CORNER FAIR 84 70 61 SW9G17 29.85S SUMMERVILLE FAIR 86 72 62 S8 29.86F HX 92 BEAUFORT MCAS MOSUNNY 91 72 53 SW18G24 29.86F HX 98 BEAUFORT ARPT FAIR 90 70 51 SW12G18 29.86F HX 95 HILTON HEAD IS MOSUNNY 91 70 49 W9 29.88F HX 97 WALTERBORO CLOUDY 86 72 62 SW8 29.87S HX 92 ALLENDALE FAIR 90 70 51 VRB6G14 29.84F HX 95 ...SOUTHERN MIDLANDS AND PEE DEE... CITY SKY/WX TMP DP RH WIND PRES REMARKS GEORGETOWN FAIR 88 70 55 SW12G22 29.85S HX 92 KINGSTREE FAIR 88 68 51 SW9G17 29.84R HX 91 ORANGEBURG CLOUDY 86 71 60 SW14 29.86R HX 91 BARNWELL FAIR 90 72 55 SW13 29.85S HX 96 AIKEN FAIR 84 70 61 SW8 29.90R MANNING FAIR 86 73 66 W16G23 29.85R HX 93 COLUMBIA CLOUDY 89 71 55 SW12 29.83R HX 95 SUMTER MOSUNNY 87 71 58 SW13 29.81S HX 92 FLORENCE MOSUNNY 89 69 51 SW18 29.82S HX 93 MYRTLE BEACH MOSUNNY 90 70 51 W18 29.84S HX 95 N MYRTLE BEACH MOSUNNY 81 74 79 SW17 29.83S $$ GAZ063-065-086>088-099>101-113>116-118-119-134>141-150-282300- ...SOUTHEAST GEORGIA... CITY SKY/WX TMP DP RH WIND PRES REMARKS SAVANNAH ARPT MOSUNNY 94 65 38 W10 29.88F HX 96 HUNTER AAF SUNNY 93 75 55 W10G20 29.86F HX 104 FORT STEWART SUNNY 93 66 41 W15 29.87F HX 95 STATESBORO SUNNY 92 67 43 SW13G20 29.86F HX 95 SYLVANIA CLEAR 91 72 53 W8G16 29.86F HX 97 CLAXTON FAIR 91 71 52 SW7 29.87F HX 97 ...CSRA...CENTRAL AND FAR SOUTHEAST GEORGIA... CITY SKY/WX TMP DP RH WIND PRES REMARKS THOMSON MOSUNNY 87 70 55 NW6 29.92R HX 92 AUGUSTA-BUSH MOSUNNY 90 70 51 W10 29.84S HX 95 AUGUSTA-DANIEL PTSUNNY 89 67 47 VRB6G20 29.86S HX 92 SWAINSBORO FAIR 90 68 48 SW9G17 29.87F HX 93 VIDALIA SUNNY 91 68 46 SW18G25 29.89S HX 95 EASTMAN FAIR 89 55 30 SW7 29.91F HAZLEHURST FAIR 92 65 41 SW15G21 29.88F HX 94 ALMA SUNNY 93 63 36 W10 29.92F HX 94 WAYCROSS SUNNY 96 70 42 W10G21 29.92F HX 102 JESUP FAIR 95 57 28 W12G22 29.90F HX 94 BAXLEY FAIR 93 70 46 W8G20 29.90F HX 99 BRUNSWICK SUNNY 93 70 46 W12G18 29.92F HX 99 SAINT SIMONS SUNNY 93 67 42 W12 29.91F HX 96 $$ SCZ027-028-034-036>038-045-046-048>050-GAZ119-141-282300- ...LAKE AND SUPPLEMENTAL COASTAL OBSERVATIONS... STATION/POSITION TIME TEMP WIND PRES WAVE SWELL AIR SEA DIR/SP/G HT/PER HT/PER/DIR (UTC) (F) (DEG/KT/KT) (MB) (FT/S) (FT/S/D) WINYAH BAY 2145 86 220/ 11 1010.0S LAKE MURRAY 2150 85 250/ 9/ 12 1009.1F ACE BASIN NERRS 2145 89 220/ 2 1011.0F FORT PULASKI 2200 90 260/ 12/ 17 1012.0 SAPELO ISLAND 2200 91 250/ 15 1013.0 $$ ANZ835-935-AMZ111-154-330-350-352-354-370-450-454-472-282300- ...C-MAN AND BUOY OBSERVATIONS... STATION/POSITION TIME TEMP WIND PRES WAVE SWELL AIR SEA DIR/SP/G HT/PER HT/PER/DIR (UTC) (F) (DEG/KT/KT) (MB) (FT/S) (FT/S/D) BUOY 41004 2210 77 76 210/ 14/ 17 1011.9 BUOY 41008 2150 79 79 170/ 14/ 16 1012.8F 2/ 7 2/100/ 7 FOLLY BEACH CMAN 2200 79 210/ 14/ 16 1012.3F CAPERS NEARSHORE 2208 81 78 220/ 14/ 19 1011.3F FRIPP NEARSHORE 2208 81 80 210/ 12/ 17 1011.5F STATION/POSITION TIME TEMP WIND PRES WAVE SWELL AIR SEA DIR/SP/G HT/PER HT/PER/DIR (UTC) (F) (DEG/KT/KT) (MB) (FT/S) (FT/S/D) 5E ST. MARYS GA 2200 81 N/A 1/ 8 FRYING PAN BUOY 2210 77 75 210/ 16/ 21 1011.0 BUOY 41025 2150 78 76 220/ 19/ 23 1009.1S 4/ 6 2/160/10 CAPE LOOKOUT NC 2200 78 230/ 12/ 17 1009.4R BUOY 41002 2150 77 77 210/ 14/ 16 1014.3F 4/ 5 2/160/ 7 BUOY 41010 2210 80 80 260/ 6/ 8 1015.8 ST AUGUSTINE FL 2200 81 80 130/ 11/ 14 1015.1F $$

USA.gov is the U.S. government's official web portal to all federal, state and local government web resources and services.